Regional Weather Roundup
Issued by NWS

Home | Current Version | Previous Version | Text Only | Print | Product List | Glossary Off
Versions: 1 2 3 4 5 6 7 8 9 10 11 12 13 14 15 16 17 18 19 20 21 22 23 24 25 26 27 28 29 30 31 32 33 34 35 36 37 38 39 40 41 42 43 44 45 46 47 48 49 50

000
ASUS43 KOAX 220302
RWRNE

WEATHER ROUNDUP FOR NEBRASKA
NATIONAL WEATHER SERVICE OMAHA NE
1000 PM CDT THU AUG 21 2014

NOTES: SATELLITE DATA IS BEING USED TO AUGMENT CLOUD COVER ABOVE
       12000 FEET.
       "FAIR" INDICATES FEW OR NO CLOUDS BELOW 12,000 FEET WITH NO
       SIGNIFICANT WEATHER AND/OR OBSTRUCTIONS TO VISIBILITY.

  * THESE STATIONS DO NOT REPORT WEATHER SUCH AS RAIN...SNOW OR FOG.

NEZ001>004-019>022-054>056-220400-
NEBRASKA PANHANDLE

CITY           SKY/WX    TMP DP  RH WIND       PRES   REMARKS
SCOTTSBLUFF    MOCLDY    76  49  38 CALM      30.02S
ALLIANCE       PTCLDY    71  50  47 S7        30.01R
CHADRON        PTCLDY    76  55  48 S10       29.94R
KIMBALL        MOCLDY    69  55  62 W8        30.08S
SIDNEY         PTCLDY    68  53  58 CALM      30.06R
$$

NEZ057>060-069>072-079>082-220400-
SOUTHWEST NEBRASKA

CITY           SKY/WX    TMP DP  RH WIND       PRES   REMARKS
NORTH PLATTE   CLEAR     70  61  73 E3        29.96R
IMPERIAL       CLEAR     75  59  57 E5        29.98R
LEXINGTON      PTCLDY    76  72  85 NE5       29.93S
MCCOOK         CLEAR     76  65  68 NE5       29.94R
OGALLALA       PTCLDY    73  62  67 E5        29.99R
$$

NEZ005>010-023>029-035>040-094-220400-
NORTH CENTRAL NEBRASKA

CITY           SKY/WX    TMP DP  RH WIND       PRES   REMARKS
VALENTINE      MOCLDY    75  57  53 E7        29.95R
AINSWORTH      MOCLDY    70  64  80 E6        29.96R
BROKEN BOW     PTCLDY    71  67  87 CALM      29.95R
O`NEILL        PTCLDY    74  66  75 NE5       29.94R
ORD            MOCLDY    75  69  81 NW3       29.92R
THEDFORD       PTCLDY    73  63  69 CALM      29.98R
$$

NEZ041-046>049-061>064-073>077-083>087-220400-
SOUTH CENTRAL NEBRASKA

CITY           SKY/WX    TMP DP  RH WIND       PRES   REMARKS
GRAND ISLAND   LGT RAIN  79  72  79 SE7       29.92R
AURORA         MOCLDY    78  67  68 E5G21     29.88F
HASTINGS       MOCLDY    74  67  78 E3        29.90S
HEBRON         CLOUDY    75  67  76 E6        29.88S THUNDER
HOLDREGE       MOCLDY    76  73  89 CALM      29.92S
KEARNEY *      PTCLDY    75  73  94 NE7       29.92S
YORK           LGT RAIN  72 N/A N/A CALM      29.89F
$$

NEZ011>018-030>034-042>045-220400-
NORTHEAST NEBRASKA

CITY           SKY/WX    TMP DP  RH WIND       PRES   REMARKS
NORFOLK        PTCLDY    78  72  81 CALM      29.88R
ALBION         MOCLDY    76  72  85 CALM      29.91R
BLAIR          MOCLDY    82  73  75 CALM      29.87R
FREMONT        PTCLDY    83  71  66 CALM      29.87R
TEKAMAH        PTCLDY    78  73  84 CALM      29.85R
WAYNE          CLEAR     76  74  93 CALM      29.89R
$$

NEZ050>053-065>068-078-088>093-220400-
SOUTHEAST NEBRASKA

CITY           SKY/WX    TMP DP  RH WIND       PRES   REMARKS
LINCOLN        CLOUDY    83  72  69 SE5       29.87R
OMAHA EPPLEY   CLOUDY    83  74  74 SE5       29.85S
BEATRICE       CLOUDY    80  76  88 E8        29.85F
FALLS CITY     MOCLDY    83  79  88 CALM      29.84R HX  94
NEBRASKA CITY  CLOUDY    79  79 100 NE3       29.86R
PLATTSMOUTH    CLOUDY    80  74  83 E3        29.86R
$$

NEZ044-045-051>053-067-220400-
OMAHA AREA

CITY           SKY/WX    TMP DP  RH WIND       PRES   REMARKS
OMAHA EPPLEY   CLOUDY    83  74  74 SE5       29.85S
BLAIR          MOCLDY    82  73  75 CALM      29.87R
FREMONT        PTCLDY    83  71  66 CALM      29.87R
MILLARD        MOCLDY    82  76  81 CALM      29.85S
OFFUTT AFB     MOCLDY    78  78 100 E3        29.85R
PLATTSMOUTH    CLOUDY    80  74  83 E3        29.86R
WAHOO          FAIR      80  71  75 CALM      29.86R
$$


USA.gov is the U.S. government's official web portal to all federal, state and local government web resources and services.